SCP
-0 -0 -0 0 -0 -0 0 0 -0 0 0 0 0 0 0 0 0 0 0 0 0 0 0 0 0 0 0 0 0 0 0 0 0 0 0 0 0 0 0 0 0 0 0 0 0 0 0 0 0 0 0 0 0 0
-0 -0 0 -0 -0 0 0 0 0 0 0 0 0 0 0 0 0 0 0 0 0 0 0 0 0 0 0 0 0 0 0 0 0 0 0 0 0 0 0 0 0 0 0 0 0 0 0 0 0 0 0 0 0 0
-0 -0 -0 -0 -0 -0 -0 -0 0 0 -0 -0 0 0 0 0 0 0 0 0 0 0 0 0 0 0 0 0 0 0 0 0 0 0 0 0 0 0 0 0 0 0 0 0 0 0 0 0 0 0 0 0 0 0
-0 -0 -0 -0 -0 -0 -0 -0 -0 -0 -0 -0 -0 -0 0 0 0 0 0 0 0 0 0 0 0 0 0 0 0 0 0 0 0 0 0 0 0 0 0 0 0 0 0 0 0 0 0 0 0 0 0 0 0 0
-0 -0 -0 -0 -0 -0 -0 -0 -0 -0 -0 -0 -0 0 -0 -0 -0 0 0 0 0 0 0 0 0 0 0 0 0 0 0 0 0 0 0 0 0 0 0 0 0 0 0 0 0 0 0 0 0 0 0 0 0 0
-0 -0 -0 -0 -0 -0 -0 -0 -0 -0 -0 -0 -0 -0 0 0 0 0 0 0 0 0 0 0 0 0 0 0 0 0 0 0 0 0 0 0 0 0 0 0 0 0 0 0 0 0 0 0 0 0 0 0 0 -0
-0 -0 -0 -0 -0 -0 -0 -0 -0 -0 -0 -0 -0 -0 -0 -0 0 0 0 0 0 0 0 0 0 0 0 0 0 0 0 0 0 0 0 0 0 0 0 0 0 0 0 0 0 0 0 0 0 0 0 0 0 0
-0 -0 -0 -0 -0 -0 -0 -0 -0 -0 -0 -0 0 0 0 0 0 0 0 0 0 0 0 0 0 0 0 0 0 0 0 0 0 0 0 0 0 0 0 0 0 0 0 0 0 0 0 0 0 0 0 0 -0 -0
-0 -0 -0 -0 -0 -0 -0 0 0 0 0 0 0 0 0 0 0 0 0 0 0 0 0 0 0 0 0 0 0 0 0 0 0 0 0 0 0 0 0 0 0 0 0 0 0 0 0 0 0 0 0 0 0 0
-0 -0 -0 -0 -0 -0 -0 0 0 0 0 0 0 0 0 0 0 0 0 0 0 0 0 0 0 0 0 0 0 0 0 0 0 0 0 0 0 0 0 0 0 0 0 0 0 0 0 0 0 0 0 0 -0 -0
-0 -0 -0 -0 -0 -0 -0 0 0 0 0 0 0 0 0 0 0 0 0 0 0 0 0 0 0 0 0 0 0 0 0 0 0 0 0 0 0 0 0 0 0 0 0 0 0 0 0 0 0 0 0 0 0 0
0 -0 -0 -0 -0 -0 -0 -0 0 0 0 0 0 0 0 0 0 0 0 0 0 0 0 0 0 0 0 0 0 0 0 0 0 0 0 0 0 0 0 0 0 0 0 0 0 0 0 0 0 0 0 0 0 0
-0 0 0 0 0 -0 -0 0 0 0 0 0 0 0 0 0 0 0 0 0 0 0 0 0 0 0 0 0 0 0 0 0 0 0 0 0 0 0 0 0 0 0 0 0 0 0 0 0 0 0 0 0 0 0
-0 0 -0 -0 -0 0 0 0 0 0 0 0 0 0 0 0 0 0 0 0 0 0 0 0 0 0 0 0 0 0 0 0 0 0 0 0 0 0 0 0 0 0 0 0 0 0 0 0 0 0 0 0 0 0
0 -0 -0 -0 -0 -0 -0 0 0 0 0 0 0 0 0 0 0 0 0 0 0 0 0 0 0 0 0 0 0 0 0 0 0 0 0 0 0 0 0 -0 0 0 -0 -0 -0 0 0 0 0 0 0 0 0 0
0 0 0 0 -0 0 0 0 0 0 0 0 0 0 0 0 0 0 0 0 0 0 0 0 0 0 0 0 0 0 0 0 0 0 0 0 0 0 0 -0 0 -0 -0 -0 -0 -0 -0 -0 0 0 -0 0 0 0
0 0 0 -0 0 0 -0 0 -0 0 0 0 0 0 0 0 0 0 0 0 0 0 0 0 0 0 0 0 0 0 0 0 0 0 0 0 0 0 0 0 0 0 -0 -0 -0 -0 -0 -0 -0 -0 0 0 0 -0
0 0 0 0 0 0 0 0 0 0 0 0 0 0 0 0 0 0 0 0 0 0 0 0 0 0 0 0 0 0 0 0 0 0 0 0 0 0 0 0 0 -0 -0 -0 -0 -0 -0 -0 -0 -0 -0 -0 -0 -0
0 0 -0 -0 0 0 0 0 0 0 0 0 0 0 0 0 0 0 0 0 0 0 0 0 0 0 0 0 0 0 0 0 0 0 0 0 0 0 0 -0 0 0 0 0 0 0 0 -0 0 -0 -0 -0 -0 -0
0 0 0 -0 0 0 0 0 0 0 0 0 0 0 0 0 0 0 0 0 0 0 0 0 0 0 0 0 0 0 0 0 0 0 0 0 0 0 0 0 0 0 0 0 0 0 0 -0 -0 -0 -0 -0 -0 -0
0 0 0 0 0 0 0 0 0 0 0 0 0 0 0 0 0 0 0 0 0 0 0 0 0 0 0 0 0 0 0 0 0 0 0 0 0 0 0 0 0 0 0 0 0 0 -0 -0 -0 -0 -0 -0 -0 -0
0 0 0 0 0 0 0 0 0 0 0 0 0 0 0 0 0 0 0 0 0 0 0 0 0 0 0 0 0 0 0 0 0 0 0 0 0 0 0 0 0 0 0 0 -0 -0 -0 -0 0 -0 -0 -0 -0 -0
0 0 0 0 0 0 0 0 0 0 0 0 0 0 0 0 0 0 0 0 0 0 0 0 0 0 0 0 0 0 0 0 0 0 0 0 0 0 0 0 0 0 0 0 0 0 0 0 0 0 0 0 0 0
0 0 0 0 0 0 0 0 0 0 0 0 0 0 0 0 0 0 0 0 0 0 0 0 0 0 0 0 0 0 0 0 0 0 0 0 0 0 0 0 0 -0 -0 0 0 0 0 0 0 0 0 0 0 0
0 0 0 0 0 0 0 0 0 0 0 0 0 0 0 0 0 0 0 0 0 0 0 0 0 0 0 0 0 0 0 0 -0 -0 0 -0 0 0 0 0 -0 -0 0 0 0 0 0 0 0 0 0 0 0 0
0 0 0 0 0 0 0 0 0 0 0 0 0 0 0 0 0 0 0 0 0 0 0 0 0 0 0 0 0 0 0 0 0 0 0 -0 -0 -0 -0 0 0 0 0 0 0 0 0 0 0 0 0 0 0 0
0 0 0 0 0 0 0 0 0 0 0 0 0 0 0 0 0 0 0 0 0 0 0 0 0 0 0 0 -0 0 0 -0 -0 0 0 0 0 0 0 0 0 0 0 0 0 0 0 0 0 0 0 0 0 0
0 0 0 0 0 0 0 0 0 0 0 0 0 0 0 0 0 0 0 0 0 0 0 0 0 0 0 0 0 0 0 0 0 0 0 0 0 0 0 0 0 0 0 0 0 0 0 0 0 0 0 0 0 0
0 0 0 0 0 0 0 0 0 0 0 0 0 0 0 0 0 0 0 0 0 0 0 0 0 0 0 0 0 0 0 0 0 0 0 0 0 0 0 0 0 0 0 0 0 0 0 0 0 0 0 0 0 0
0 0 0 0 0 0 0 0 0 0 0 0 0 0 0 0 0 0 0 0 0 0 0 0 0 0 0 0 0 0 0 0 0 0 0 0 0 0 0 0 0 0 0 0 0 0 0 0 0 0 0 0 0 0
0 0 0 0 0 0 0 0 0 0 0 0 0 0 0 0 0 0 0 0 0 0 0 0 0 0 0 0 0 0 0 0 0 0 0 0 0 0 0 0 0 0 0 0 0 0 0 0 0 0 0 0 0 0
0 0 0 0 0 0 0 0 0 0 0 0 0 0 0 0 0 0 0 0 0 0 0 0 0 0 0 0 0 0 0 0 0 0 0 0 0 0 0 0 0 0 0 0 0 0 0 0 0 0 0 0 0 0
0 0 0 0 0 0 0 0 0 0 0 0 0 0 0 0 0 0 0 0 0 0 0 0 0 0 0 0 0 0 0 0 0 0 0 0 0 0 0 0 0 0 0 0 0 0 0 0 0 0 0 0 0 0
Wind_Speed_500mb
78 80 87 85 94 102 99 102 96 93 87 87 78 66 64 61 56 53 65 68 69 37 22 31 37 29 35 25 16 26 15 1 5 5 6 8 7 13 6 9 15 17 20 13 14 12 30 35 19 27 25 48 21 25
101 77 76 80 83 81 76 69 73 71 67 66 64 64 59 52 55 51 59 48 89 41 34 51 42 36 28 25 45 38 11 14 16 7 4 6 5 5 6 8 12 11 18 12 20 16 38 33 30 14 22 38 10 21
87 92 76 71 71 67 67 69 63 60 58 56 52 48 49 50 47 56 69 67 64 66 43 29 35 33 30 24 32 19 12 17 13 11 13 4 6 8 10 11 5 10 6 9 11 29 42 59 28 14 20 40 45 34
77 78 82 72 69 66 66 66 66 62 57 56 53 51 52 51 51 57 70 56 59 31 12 14 20 24 23 26 16 20 36 27 33 17 8 5 4 10 0 4 6 2 1 7 18 41 46 77 7 22 41 50 55 52
72 74 69 72 66 63 61 61 63 64 63 59 59 58 55 50 44 52 59 46 32 18 14 15 26 25 10 17 20 28 30 30 15 8 5 5 6 5 3 2 15 13 8 12 21 18 17 43 37 59 68 62 67 73
57 59 64 64 61 61 60 58 59 59 55 53 51 51 54 56 57 46 27 42 53 56 22 7 12 18 18 14 14 12 8 11 9 8 4 3 8 8 5 7 12 14 16 15 20 51 53 70 75 38 58 68 74 79
55 50 49 53 55 53 48 49 49 50 51 51 49 43 35 23 8 20 20 15 24 21 15 9 7 7 10 11 12 11 10 7 7 5 2 4 7 14 5 12 29 26 28 38 33 38 27 18 38 74 70 72 79 87
49 47 43 39 41 44 45 42 37 37 41 43 44 47 49 55 56 54 44 34 19 19 15 8 4 5 14 8 8 9 7 5 5 2 2 5 2 6 5 20 32 36 42 24 17 39 48 59 54 60 61 63 74 77
44 41 39 38 35 34 35 33 33 32 29 30 26 25 26 29 23 29 33 36 38 21 13 10 4 4 8 9 7 6 6 4 4 2 5 3 4 4 6 27 34 36 31 46 51 52 42 47 56 57 61 62 66 70
38 36 33 32 30 27 26 25 23 20 19 21 19 11 12 12 18 14 13 10 14 22 17 9 2 2 9 8 6 2 6 2 2 4 7 6 1 4 6 26 25 30 33 37 41 42 62 65 62 64 64 64 62 62
30 31 30 28 27 25 21 18 18 19 20 17 14 12 15 17 12 12 13 17 19 8 15 10 17 6 18 6 4 6 1 2 4 4 2 3 3 1 30 31 30 32 33 34 34 38 40 44 53 57 60 55 52 50
28 27 27 27 24 23 22 20 18 16 20 20 15 16 11 12 13 13 5 6 11 4 9 4 8 9 7 8 4 1 2 1 6 6 4 4 4 14 26 30 30 29 30 31 29 32 34 35 35 40 43 44 41 38
28 27 27 25 24 20 19 18 18 17 15 12 8 7 14 15 15 8 3 4 3 6 11 15 4 7 5 4 3 2 4 5 9 1 3 1 3 18 21 26 27 26 27 28 28 26 28 30 28 32 37 35 33 34
27 31 32 24 20 20 17 13 10 7 6 7 12 11 8 7 5 3 3 3 3 1 8 10 3 6 3 1 1 5 1 3 2 2 5 5 7 15 18 22 24 28 29 28 29 29 30 31 31 32 34 37 40 44
23 27 31 16 16 19 19 16 11 8 7 10 10 6 7 6 7 6 6 5 3 4 9 2 2 1 1 2 2 2 1 5 6 4 4 6 7 9 13 17 23 26 27 28 29 30 30 29 29 31 32 35 39 43
24 24 31 19 17 17 17 17 12 11 11 11 14 10 8 5 2 4 4 6 2 5 4 5 4 4 2 1 3 9 6 9 5 4 9 3 2 7 11 15 20 20 21 22 25 27 29 30 32 33 35 40 43 45
26 22 19 26 26 18 13 13 14 14 11 9 10 16 14 14 8 5 4 3 5 4 2 4 4 8 4 1 5 7 6 3 11 10 7 6 3 5 9 11 14 15 16 19 22 24 25 25 24 28 39 43 43 41
23 20 22 21 15 10 27 14 10 10 13 11 7 10 11 9 8 5 3 2 2 6 9 5 7 4 7 6 5 5 9 12 9 11 9 5 3 3 4 6 9 12 14 16 18 20 21 25 31 37 37 37 37 38
19 17 13 15 21 9 8 10 10 10 8 8 9 8 5 5 4 2 4 1 6 7 6 5 3 5 6 10 10 14 16 16 16 14 9 9 7 3 2 5 8 10 11 12 14 20 24 28 32 34 37 39 42 43
14 17 17 14 12 6 7 8 8 8 6 8 7 7 6 5 4 4 2 3 8 5 5 5 7 7 9 12 17 17 17 16 15 13 14 13 8 3 1 1 4 8 10 12 14 16 17 20 25 29 34 38 41 43
6 9 10 5 7 11 9 6 9 8 10 5 5 4 5 6 7 7 6 5 10 10 8 13 13 15 17 17 17 17 16 17 16 17 14 14 11 8 6 3 4 7 8 9 11 14 18 23 27 31 35 38 39 41
6 8 4 5 6 7 9 10 8 7 3 4 3 3 5 5 6 6 13 11 12 11 13 14 19 19 18 17 16 16 17 17 16 14 14 13 11 9 7 5 5 9 12 12 12 14 19 24 29 33 36 37 37 39
7 2 2 4 5 5 5 3 3 2 4 2 2 1 2 3 3 10 8 11 11 19 21 23 23 22 21 20 20 19 18 17 15 14 13 10 9 9 8 9 10 11 13 15 16 20 24 28 31 33 34 35 36 36
3 2 3 5 7 5 7 3 3 3 3 6 4 4 4 5 10 2 6 9 16 23 31 27 27 26 25 25 24 20 19 18 17 14 12 10 10 10 10 12 13 14 14 16 18 22 26 29 30 32 33 33 35 37
2 7 4 7 6 4 7 7 9 5 3 1 1 6 4 6 3 3 6 9 24 32 31 32 32 32 29 24 25 26 24 22 19 17 17 15 14 12 11 13 14 16 17 18 20 22 23 24 25 26 28 31 35 38
7 3 4 2 1 2 8 3 5 7 5 2 9 4 3 4 2 11 7 10 19 25 31 32 30 32 32 29 27 26 23 23 22 20 18 15 13 13 12 14 17 18 18 20 19 19 20 21 21 23 26 31 37 42
4 7 6 6 4 6 7 5 4 2 4 9 5 3 4 2 10 10 9 13 14 14 17 21 24 25 19 22 26 26 23 22 21 19 16 14 12 13 16 18 19 19 20 20 20 19 19 19 22 26 30 32 37 42
6 14 8 14 8 8 8 3 6 9 7 9 13 6 11 14 9 4 8 11 21 19 20 23 25 29 32 30 27 28 28 26 24 23 22 21 22 20 19 21 22 21 20 19 18 18 18 22 25 28 33 37 39 40
6 13 10 6 6 8 14 13 10 8 8 14 7 7 11 13 11 10 13 16 20 27 31 31 32 33 34 33 32 32 31 31 31 32 31 28 29 28 28 23 21 20 18 18 16 16 19 24 29 32 36 38 37 37
9 10 5 5 7 8 9 16 9 11 15 24 20 23 36 61 65 67 65 64 63 53 44 44 46 43 39 35 31 31 32 34 34 34 35 32 30 28 23 22 20 18 16 15 14 17 22 26 30 32 32 32 33 33
11 8 4 6 7 5 9 16 24 33 33 28 37 39 47 43 50 27 9 9 14 18 39 61 69 56 52 45 37 30 29 29 31 29 31 30 29 27 25 22 18 16 14 13 14 16 21 25 26 27 29 31 32 35
9 6 4 3 4 9 17 7 10 10 11 10 9 10 12 12 13 6 9 25 30 36 34 34 47 67 58 44 40 39 32 27 23 22 22 23 23 23 22 19 16 15 13 13 14 17 20 22 24 25 26 28 31 34
3 4 5 6 6 5 6 14 6 9 10 8 7 7 7 9 13 7 18 27 35 34 27 9 18 42 39 32 30 29 27 24 21 20 19 19 19 18 18 16 15 14 13 13 14 16 19 21 22 23 26 29 31 34
Wind_Direction_500mb
54 54 65 78 84 89 87 90 92 96 94 97 100 108 120 125 134 139 126 130 134 113 104 119 124 126 128 123 142 154 114 261 92 135 162 180 171 203 165 172 173 170 178 208 216 223 259 184 190 208 242 285 327 304
53 60 61 64 72 79 88 89 89 93 94 96 98 96 97 125 138 143 129 133 133 114 115 106 103 123 130 132 136 165 151 153 161 122 187 133 159 167 154 217 187 203 205 180 195 202 251 201 246 234 266 278 35 318
49 69 66 69 69 72 82 87 88 93 94 95 96 99 104 105 123 132 127 132 137 107 87 99 87 109 124 142 163 149 163 159 155 127 149 140 183 160 180 237 235 242 200 232 248 248 260 269 277 280 307 310 317 318
46 57 72 68 66 66 75 78 80 82 84 88 95 101 106 113 122 129 124 122 118 109 93 60 94 102 106 126 126 165 151 145 146 126 100 141 180 205 238 323 242 275 99 268 257 262 285 278 323 336 323 315 310 309
55 58 63 63 65 67 70 72 74 76 79 86 92 98 105 109 125 130 122 114 120 119 122 111 89 49 92 133 125 117 133 133 126 113 108 174 188 171 170 222 246 15 329 250 258 33 311 283 318 322 317 314 311 312
60 56 57 61 63 63 69 73 74 74 76 81 90 101 109 112 115 111 77 87 103 111 105 95 89 56 69 91 141 153 144 124 112 122 137 217 167 178 234 244 61 24 347 329 286 308 297 291 304 310 309 311 307 304
52 58 58 54 53 58 63 66 67 71 73 74 77 78 77 87 112 93 92 68 91 96 101 101 91 71 84 103 90 95 101 112 123 131 198 178 200 204 226 252 14 344 325 311 304 314 302 308 305 306 308 304 303 301
45 49 52 52 48 51 56 62 67 72 77 75 77 78 77 81 89 79 74 67 74 84 81 104 71 82 27 50 78 75 90 114 179 195 150 50 3 343 247 357 340 334 327 318 310 311 296 300 304 305 309 310 308 307
42 44 46 47 44 46 51 54 63 73 72 62 68 72 66 54 47 53 60 59 50 69 95 66 83 124 23 31 100 108 136 151 159 92 57 352 352 203 19 333 333 335 326 307 312 312 314 314 317 317 319 320 316 315
39 40 43 46 45 43 42 44 47 52 50 40 42 45 57 50 49 44 36 42 38 34 49 82 3 93 7 16 75 63 36 68 189 54 72 50 191 154 343 340 329 323 319 316 318 326 326 325 327 327 326 325 322 320
37 36 37 37 38 42 40 37 32 29 29 31 40 57 73 40 41 42 47 40 355 48 27 44 40 9 25 29 22 48 83 283 239 136 171 219 233 203 335 343 342 335 328 324 320 319 319 317 321 326 329 331 332 331
39 36 30 31 31 31 33 35 32 38 52 61 77 82 41 33 40 68 23 356 37 50 6 45 353 23 36 34 50 57 269 8 250 113 191 224 155 335 340 348 355 347 340 339 337 335 337 339 338 336 342 346 350 352
37 36 31 26 23 24 27 32 40 50 52 39 45 56 23 360 48 65 22 3 41 10 10 3 48 27 30 26 331 320 218 213 131 219 250 191 163 339 353 1 6 0 359 355 354 355 357 2 3 3 5 13 17 21
26 22 16 16 25 23 21 20 28 45 38 36 30 26 44 5 64 131 129 130 121 118 354 344 9 37 41 37 294 207 186 120 125 239 221 169 306 346 6 15 8 13 12 9 10 11 14 16 21 27 29 28 30 33
21 15 6 13 21 24 27 20 15 20 62 68 40 57 49 105 87 98 78 85 77 342 347 57 78 177 116 224 25 76 65 245 225 220 153 191 334 9 15 24 28 25 16 13 16 19 21 22 25 30 35 39 42 46
21 28 26 34 18 11 14 22 36 67 59 51 57 89 115 110 73 117 105 121 18 340 109 90 94 68 291 107 116 214 178 220 176 169 160 146 5 21 29 36 44 38 28 25 26 26 27 28 29 32 36 38 38 37
16 29 33 41 40 27 6 12 34 54 61 65 60 92 98 86 98 101 96 48 341 153 111 117 119 215 100 67 246 202 218 157 160 160 163 134 100 37 47 46 51 53 47 39 32 26 24 25 28 35 40 37 37 35
15 16 27 28 12 20 48 53 65 66 64 79 94 101 87 97 109 90 48 335 188 180 164 194 139 145 203 206 236 208 182 161 163 167 155 155 131 68 31 31 33 36 32 27 24 24 24 26 30 33 32 29 29 29
15 17 14 12 23 50 56 49 50 89 89 106 112 139 134 123 111 93 19 297 169 176 168 155 134 220 225 207 203 180 171 165 170 169 170 173 164 151 35 28 25 19 18 25 28 24 21 21 21 19 17 14 14 10
15 20 25 18 19 70 79 63 67 91 121 145 146 157 177 192 223 211 230 180 188 208 192 203 221 224 204 181 171 168 172 177 177 174 179 181 182 186 198 359 7 9 10 16 18 22 24 18 13 10 6 3 360 359
347 356 8 347 41 68 80 77 70 84 124 133 147 164 197 211 208 216 225 272 214 221 238 227 215 187 177 176 181 186 190 190 186 187 186 190 202 208 204 238 330 349 351 354 0 4 3 359 357 356 355 354 354 354
290 324 302 34 74 82 82 62 94 115 129 141 168 316 194 204 202 207 296 221 233 224 212 206 199 198 196 193 189 186 185 186 191 194 195 198 203 203 217 253 300 321 326 334 340 345 347 348 346 346 347 348 351 352
280 278 89 76 104 65 121 92 131 107 108 292 271 76 255 253 232 304 251 234 241 221 207 199 197 195 194 194 195 195 198 201 204 207 207 208 216 227 249 280 307 318 318 324 329 333 334 335 337 340 344 345 347 351
208 174 62 57 45 114 130 87 83 97 72 31 45 308 288 294 320 192 246 248 225 204 202 203 204 203 207 212 215 215 216 216 217 220 226 237 248 260 278 296 307 313 317 319 324 327 328 331 335 338 339 341 343 345
196 4 20 34 57 100 47 8 349 53 229 283 35 295 299 329 15 303 234 252 215 208 207 210 213 216 221 221 217 217 215 218 223 229 233 237 241 253 268 289 304 310 314 316 320 321 322 325 329 332 335 338 338 340
76 353 72 178 358 109 186 184 207 213 148 213 235 293 349 73 33 245 235 235 219 212 216 220 221 221 225 221 216 216 215 215 218 221 222 219 226 234 255 288 298 298 302 309 313 318 321 325 328 334 338 337 335 335
123 227 155 151 136 136 94 103 128 114 175 206 206 124 82 224 248 251 239 228 219 220 218 213 219 222 221 221 218 221 221 220 216 216 217 224 241 260 266 278 288 292 303 311 318 323 324 325 330 333 335 337 335 335
147 167 174 168 158 182 137 130 173 217 229 182 148 198 195 203 238 254 239 230 218 224 223 221 218 210 212 219 217 217 218 217 216 221 234 246 261 265 272 281 283 289 302 308 313 315 317 322 327 332 334 337 339 337
120 151 155 100 147 194 213 196 216 211 202 186 198 247 247 235 257 278 284 270 260 245 237 233 229 226 224 221 220 221 222 224 228 236 248 256 261 266 271 268 273 284 290 297 306 312 320 326 330 335 334 334 335 336
151 156 151 174 174 225 204 205 230 236 238 235 253 268 273 277 285 282 280 274 268 262 255 242 234 230 231 233 234 234 236 240 245 252 262 271 277 274 271 276 281 286 293 302 310 320 325 325 323 323 326 329 333 338
144 168 179 218 259 249 257 272 273 274 270 265 262 259 269 291 297 301 320 355 344 297 261 247 240 235 227 225 233 246 256 257 254 255 257 259 260 263 271 275 278 284 289 292 300 310 313 315 319 325 332 334 338 344
155 172 156 257 260 287 300 288 282 271 276 273 268 257 284 278 276 284 324 331 326 324 312 277 250 227 220 226 240 245 245 238 239 243 246 247 249 258 262 262 265 267 270 281 297 310 312 315 322 330 334 337 342 345
137 187 238 281 291 285 299 313 292 301 267 275 275 278 262 264 262 299 322 330 334 334 333 311 170 177 197 207 209 212 216 225 236 247 249 253 259 254 252 254 254 256 269 286 299 308 314 319 326 333 336 340 344 346
Wind_Speed_850mb
78 80 87 85 94 102 99 102 96 93 87 87 78 66 64 61 56 53 65 68 69 37 22 31 37 29 35 25 16 26 15 1 5 5 6 8 7 13 6 9 15 17 20 13 14 12 30 35 19 27 25 48 21 25
101 77 76 80 83 81 76 69 73 71 67 66 64 64 59 52 55 51 59 48 89 41 34 51 42 36 28 25 45 38 11 14 16 7 4 6 5 5 6 8 12 11 18 12 20 16 38 33 30 14 22 38 10 21
87 92 76 71 71 67 67 69 63 60 58 56 52 48 49 50 47 56 69 67 64 66 43 29 35 33 30 24 32 19 12 17 13 11 13 4 6 8 10 11 5 10 6 9 11 29 42 59 28 14 20 40 45 34
77 78 82 72 69 66 66 66 66 62 57 56 53 51 52 51 51 57 70 56 59 31 12 14 20 24 23 26 16 20 36 27 33 17 8 5 4 10 0 4 6 2 1 7 18 41 46 77 7 22 41 50 55 52
72 74 69 72 66 63 61 61 63 64 63 59 59 58 55 50 44 52 59 46 32 18 14 15 26 25 10 17 20 28 30 30 15 8 5 5 6 5 3 2 15 13 8 12 21 18 17 43 37 59 68 62 67 73
57 59 64 64 61 61 60 58 59 59 55 53 51 51 54 56 57 46 27 42 53 56 22 7 12 18 18 14 14 12 8 11 9 8 4 3 8 8 5 7 12 14 16 15 20 51 53 70 75 38 58 68 74 79
55 50 49 53 55 53 48 49 49 50 51 51 49 43 35 23 8 20 20 15 24 21 15 9 7 7 10 11 12 11 10 7 7 5 2 4 7 14 5 12 29 26 28 38 33 38 27 18 38 74 70 72 79 87
49 47 43 39 41 44 45 42 37 37 41 43 44 47 49 55 56 54 44 34 19 19 15 8 4 5 14 8 8 9 7 5 5 2 2 5 2 6 5 20 32 36 42 24 17 39 48 59 54 60 61 63 74 77
44 41 39 38 35 34 35 33 33 32 29 30 26 25 26 29 23 29 33 36 38 21 13 10 4 4 8 9 7 6 6 4 4 2 5 3 4 4 6 27 34 36 31 46 51 52 42 47 56 57 61 62 66 70
38 36 33 32 30 27 26 25 23 20 19 21 19 11 12 12 18 14 13 10 14 22 17 9 2 2 9 8 6 2 6 2 2 4 7 6 1 4 6 26 25 30 33 37 41 42 62 65 62 64 64 64 62 62
30 31 30 28 27 25 21 18 18 19 20 17 14 12 15 17 12 12 13 17 19 8 15 10 17 6 18 6 4 6 1 2 4 4 2 3 3 1 30 31 30 32 33 34 34 38 40 44 53 57 60 55 52 50
28 27 27 27 24 23 22 20 18 16 20 20 15 16 11 12 13 13 5 6 11 4 9 4 8 9 7 8 4 1 2 1 6 6 4 4 4 14 26 30 30 29 30 31 29 32 34 35 35 40 43 44 41 38
28 27 27 25 24 20 19 18 18 17 15 12 8 7 14 15 15 8 3 4 3 6 11 15 4 7 5 4 3 2 4 5 9 1 3 1 3 18 21 26 27 26 27 28 28 26 28 30 28 32 37 35 33 34
27 31 32 24 20 20 17 13 10 7 6 7 12 11 8 7 5 3 3 3 3 1 8 10 3 6 3 1 1 5 1 3 2 2 5 5 7 15 18 22 24 28 29 28 29 29 30 31 31 32 34 37 40 44
23 27 31 16 16 19 19 16 11 8 7 10 10 6 7 6 7 6 6 5 3 4 9 2 2 1 1 2 2 2 1 5 6 4 4 6 7 9 13 17 23 26 27 28 29 30 30 29 29 31 32 35 39 43
24 24 31 19 17 17 17 17 12 11 11 11 14 10 8 5 2 4 4 6 2 5 4 5 4 4 2 1 3 9 6 9 5 4 9 3 2 7 11 15 20 20 21 22 25 27 29 30 32 33 35 40 43 45
26 22 19 26 26 18 13 13 14 14 11 9 10 16 14 14 8 5 4 3 5 4 2 4 4 8 4 1 5 7 6 3 11 10 7 6 3 5 9 11 14 15 16 19 22 24 25 25 24 28 39 43 43 41
23 20 22 21 15 10 27 14 10 10 13 11 7 10 11 9 8 5 3 2 2 6 9 5 7 4 7 6 5 5 9 12 9 11 9 5 3 3 4 6 9 12 14 16 18 20 21 25 31 37 37 37 37 38
19 17 13 15 21 9 8 10 10 10 8 8 9 8 5 5 4 2 4 1 6 7 6 5 3 5 6 10 10 14 16 16 16 14 9 9 7 3 2 5 8 10 11 12 14 20 24 28 32 34 37 39 42 43
14 17 17 14 12 6 7 8 8 8 6 8 7 7 6 5 4 4 2 3 8 5 5 5 7 7 9 12 17 17 17 16 15 13 14 13 8 3 1 1 4 8 10 12 14 16 17 20 25 29 34 38 41 43
6 9 10 5 7 11 9 6 9 8 10 5 5 4 5 6 7 7 6 5 10 10 8 13 13 15 17 17 17 17 16 17 16 17 14 14 11 8 6 3 4 7 8 9 11 14 18 23 27 31 35 38 39 41
6 8 4 5 6 7 9 10 8 7 3 4 3 3 5 5 6 6 13 11 12 11 13 14 19 19 18 17 16 16 17 17 16 14 14 13 11 9 7 5 5 9 12 12 12 14 19 24 29 33 36 37 37 39
7 2 2 4 5 5 5 3 3 2 4 2 2 1 2 3 3 10 8 11 11 19 21 23 23 22 21 20 20 19 18 17 15 14 13 10 9 9 8 9 10 11 13 15 16 20 24 28 31 33 34 35 36 36
3 2 3 5 7 5 7 3 3 3 3 6 4 4 4 5 10 2 6 9 16 23 31 27 27 26 25 25 24 20 19 18 17 14 12 10 10 10 10 12 13 14 14 16 18 22 26 29 30 32 33 33 35 37
2 7 4 7 6 4 7 7 9 5 3 1 1 6 4 6 3 3 6 9 24 32 31 32 32 32 29 24 25 26 24 22 19 17 17 15 14 12 11 13 14 16 17 18 20 22 23 24 25 26 28 31 35 38
7 3 4 2 1 2 8 3 5 7 5 2 9 4 3 4 2 11 7 10 19 25 31 32 30 32 32 29 27 26 23 23 22 20 18 15 13 13 12 14 17 18 18 20 19 19 20 21 21 23 26 31 37 42
4 7 6 6 4 6 7 5 4 2 4 9 5 3 4 2 10 10 9 13 14 14 17 21 24 25 19 22 26 26 23 22 21 19 16 14 12 13 16 18 19 19 20 20 20 19 19 19 22 26 30 32 37 42
6 14 8 14 8 8 8 3 6 9 7 9 13 6 11 14 9 4 8 11 21 19 20 23 25 29 32 30 27 28 28 26 24 23 22 21 22 20 19 21 22 21 20 19 18 18 18 22 25 28 33 37 39 40
6 13 10 6 6 8 14 13 10 8 8 14 7 7 11 13 11 10 13 16 20 27 31 31 32 33 34 33 32 32 31 31 31 32 31 28 29 28 28 23 21 20 18 18 16 16 19 24 29 32 36 38 37 37
9 10 5 5 7 8 9 16 9 11 15 24 20 23 36 61 65 67 65 64 63 53 44 44 46 43 39 35 31 31 32 34 34 34 35 32 30 28 23 22 20 18 16 15 14 17 22 26 30 32 32 32 33 33
11 8 4 6 7 5 9 16 24 33 33 28 37 39 47 43 50 27 9 9 14 18 39 61 69 56 52 45 37 30 29 29 31 29 31 30 29 27 25 22 18 16 14 13 14 16 21 25 26 27 29 31 32 35
9 6 4 3 4 9 17 7 10 10 11 10 9 10 12 12 13 6 9 25 30 36 34 34 47 67 58 44 40 39 32 27 23 22 22 23 23 23 22 19 16 15 13 13 14 17 20 22 24 25 26 28 31 34
3 4 5 6 6 5 6 14 6 9 10 8 7 7 7 9 13 7 18 27 35 34 27 9 18 42 39 32 30 29 27 24 21 20 19 19 19 18 18 16 15 14 13 13 14 16 19 21 22 23 26 29 31 34
Wind_Direction_850mb
54 54 65 78 84 89 87 90 92 96 94 97 100 108 120 125 134 139 126 130 134 113 104 119 124 126 128 123 142 154 114 261 92 135 162 180 171 203 165 172 173 170 178 208 216 223 259 184 190 208 242 285 327 304
53 60 61 64 72 79 88 89 89 93 94 96 98 96 97 125 138 143 129 133 133 114 115 106 103 123 130 132 136 165 151 153 161 122 187 133 159 167 154 217 187 203 205 180 195 202 251 201 246 234 266 278 35 318
49 69 66 69 69 72 82 87 88 93 94 95 96 99 104 105 123 132 127 132 137 107 87 99 87 109 124 142 163 149 163 159 155 127 149 140 183 160 180 237 235 242 200 232 248 248 260 269 277 280 307 310 317 318
46 57 72 68 66 66 75 78 80 82 84 88 95 101 106 113 122 129 124 122 118 109 93 60 94 102 106 126 126 165 151 145 146 126 100 141 180 205 238 323 242 275 99 268 257 262 285 278 323 336 323 315 310 309
55 58 63 63 65 67 70 72 74 76 79 86 92 98 105 109 125 130 122 114 120 119 122 111 89 49 92 133 125 117 133 133 126 113 108 174 188 171 170 222 246 15 329 250 258 33 311 283 318 322 317 314 311 312
60 56 57 61 63 63 69 73 74 74 76 81 90 101 109 112 115 111 77 87 103 111 105 95 89 56 69 91 141 153 144 124 112 122 137 217 167 178 234 244 61 24 347 329 286 308 297 291 304 310 309 311 307 304
52 58 58 54 53 58 63 66 67 71 73 74 77 78 77 87 112 93 92 68 91 96 101 101 91 71 84 103 90 95 101 112 123 131 198 178 200 204 226 252 14 344 325 311 304 314 302 308 305 306 308 304 303 301
45 49 52 52 48 51 56 62 67 72 77 75 77 78 77 81 89 79 74 67 74 84 81 104 71 82 27 50 78 75 90 114 179 195 150 50 3 343 247 357 340 334 327 318 310 311 296 300 304 305 309 310 308 307
42 44 46 47 44 46 51 54 63 73 72 62 68 72 66 54 47 53 60 59 50 69 95 66 83 124 23 31 100 108 136 151 159 92 57 352 352 203 19 333 333 335 326 307 312 312 314 314 317 317 319 320 316 315
39 40 43 46 45 43 42 44 47 52 50 40 42 45 57 50 49 44 36 42 38 34 49 82 3 93 7 16 75 63 36 68 189 54 72 50 191 154 343 340 329 323 319 316 318 326 326 325 327 327 326 325 322 320
37 36 37 37 38 42 40 37 32 29 29 31 40 57 73 40 41 42 47 40 355 48 27 44 40 9 25 29 22 48 83 283 239 136 171 219 233 203 335 343 342 335 328 324 320 319 319 317 321 326 329 331 332 331
39 36 30 31 31 31 33 35 32 38 52 61 77 82 41 33 40 68 23 356 37 50 6 45 353 23 36 34 50 57 269 8 250 113 191 224 155 335 340 348 355 347 340 339 337 335 337 339 338 336 342 346 350 352
37 36 31 26 23 24 27 32 40 50 52 39 45 56 23 360 48 65 22 3 41 10 10 3 48 27 30 26 331 320 218 213 131 219 250 191 163 339 353 1 6 0 359 355 354 355 357 2 3 3 5 13 17 21
26 22 16 16 25 23 21 20 28 45 38 36 30 26 44 5 64 131 129 130 121 118 354 344 9 37 41 37 294 207 186 120 125 239 221 169 306 346 6 15 8 13 12 9 10 11 14 16 21 27 29 28 30 33
21 15 6 13 21 24 27 20 15 20 62 68 40 57 49 105 87 98 78 85 77 342 347 57 78 177 116 224 25 76 65 245 225 220 153 191 334 9 15 24 28 25 16 13 16 19 21 22 25 30 35 39 42 46
21 28 26 34 18 11 14 22 36 67 59 51 57 89 115 110 73 117 105 121 18 340 109 90 94 68 291 107 116 214 178 220 176 169 160 146 5 21 29 36 44 38 28 25 26 26 27 28 29 32 36 38 38 37
16 29 33 41 40 27 6 12 34 54 61 65 60 92 98 86 98 101 96 48 341 153 111 117 119 215 100 67 246 202 218 157 160 160 163 134 100 37 47 46 51 53 47 39 32 26 24 25 28 35 40 37 37 35
15 16 27 28 12 20 48 53 65 66 64 79 94 101 87 97 109 90 48 335 188 180 164 194 139 145 203 206 236 208 182 161 163 167 155 155 131 68 31 31 33 36 32 27 24 24 24 26 30 33 32 29 29 29
15 17 14 12 23 50 56 49 50 89 89 106 112 139 134 123 111 93 19 297 169 176 168 155 134 220 225 207 203 180 171 165 170 169 170 173 164 151 35 28 25 19 18 25 28 24 21 21 21 19 17 14 14 10
15 20 25 18 19 70 79 63 67 91 121 145 146 157 177 192 223 211 230 180 188 208 192 203 221 224 204 181 171 168 172 177 177 174 179 181 182 186 198 359 7 9 10 16 18 22 24 18 13 10 6 3 360 359
347 356 8 347 41 68 80 77 70 84 124 133 147 164 197 211 208 216 225 272 214 221 238 227 215 187 177 176 181 186 190 190 186 187 186 190 202 208 204 238 330 349 351 354 0 4 3 359 357 356 355 354 354 354
290 324 302 34 74 82 82 62 94 115 129 141 168 316 194 204 202 207 296 221 233 224 212 206 199 198 196 193 189 186 185 186 191 194 195 198 203 203 217 253 300 321 326 334 340 345 347 348 346 346 347 348 351 352
280 278 89 76 104 65 121 92 131 107 108 292 271 76 255 253 232 304 251 234 241 221 207 199 197 195 194 194 195 195 198 201 204 207 207 208 216 227 249 280 307 318 318 324 329 333 334 335 337 340 344 345 347 351
208 174 62 57 45 114 130 87 83 97 72 31 45 308 288 294 320 192 246 248 225 204 202 203 204 203 207 212 215 215 216 216 217 220 226 237 248 260 278 296 307 313 317 319 324 327 328 331 335 338 339 341 343 345
196 4 20 34 57 100 47 8 349 53 229 283 35 295 299 329 15 303 234 252 215 208 207 210 213 216 221 221 217 217 215 218 223 229 233 237 241 253 268 289 304 310 314 316 320 321 322 325 329 332 335 338 338 340
76 353 72 178 358 109 186 184 207 213 148 213 235 293 349 73 33 245 235 235 219 212 216 220 221 221 225 221 216 216 215 215 218 221 222 219 226 234 255 288 298 298 302 309 313 318 321 325 328 334 338 337 335 335
123 227 155 151 136 136 94 103 128 114 175 206 206 124 82 224 248 251 239 228 219 220 218 213 219 222 221 221 218 221 221 220 216 216 217 224 241 260 266 278 288 292 303 311 318 323 324 325 330 333 335 337 335 335
147 167 174 168 158 182 137 130 173 217 229 182 148 198 195 203 238 254 239 230 218 224 223 221 218 210 212 219 217 217 218 217 216 221 234 246 261 265 272 281 283 289 302 308 313 315 317 322 327 332 334 337 339 337
120 151 155 100 147 194 213 196 216 211 202 186 198 247 247 235 257 278 284 270 260 245 237 233 229 226 224 221 220 221 222 224 228 236 248 256 261 266 271 268 273 284 290 297 306 312 320 326 330 335 334 334 335 336
151 156 151 174 174 225 204 205 230 236 238 235 253 268 273 277 285 282 280 274 268 262 255 242 234 230 231 233 234 234 236 240 245 252 262 271 277 274 271 276 281 286 293 302 310 320 325 325 323 323 326 329 333 338
144 168 179 218 259 249 257 272 273 274 270 265 262 259 269 291 297 301 320 355 344 297 261 247 240 235 227 225 233 246 256 257 254 255 257 259 260 263 271 275 278 284 289 292 300 310 313 315 319 325 332 334 338 344
155 172 156 257 260 287 300 288 282 271 276 273 268 257 284 278 276 284 324 331 326 324 312 277 250 227 220 226 240 245 245 238 239 243 246 247 249 258 262 262 265 267 270 281 297 310 312 315 322 330 334 337 342 345
137 187 238 281 291 285 299 313 292 301 267 275 275 278 262 264 262 299 322 330 334 334 333 311 170 177 197 207 209 212 216 225 236 247 249 253 259 254 252 254 254 256 269 286 299 308 314 319 326 333 336 340 344 346